TimeCST,TemperatureF,Dew PointF,Humidity,Sea Level PressureIn,VisibilityMPH,Wind Direction,Wind SpeedMPH,Gust SpeedMPH,PrecipitationIn,Events,Conditions,WindDirDegrees,DateUTC
12:15 AM,42.8,35.6,76,29.99,10.0,SSE,11.5,-,N/A,,Overcast,150,2012-12-15 06:15:00
12:35 AM,42.8,35.2,75,29.98,10.0,SSE,16.1,-,N/A,,Light Drizzle,150,2012-12-15 06:35:00
12:55 AM,43.3,35.1,73,29.98,10.0,SSE,16.1,-,N/A,,Overcast,150,2012-12-15 06:55:00
1:15 AM,42.4,35.8,77,29.96,10.0,SSE,13.8,-,N/A,Rain,Light Rain,150,2012-12-15 07:15:00
1:35 AM,42.3,36.1,79,29.95,10.0,SE,15.0,19.6,N/A,Rain,Light Rain,140,2012-12-15 07:35:00
1:55 AM,42.3,35.8,78,29.94,10.0,SSE,15.0,-,N/A,,Overcast,150,2012-12-15 07:55:00
2:15 AM,42.4,35.6,77,29.94,10.0,SSE,11.5,-,N/A,,Overcast,150,2012-12-15 08:15:00
2:35 AM,42.8,35.1,74,29.94,10.0,SE,13.8,-,N/A,,Overcast,140,2012-12-15 08:35:00
2:55 AM,43.3,34.9,72,29.93,10.0,SE,12.7,-,N/A,,Overcast,140,2012-12-15 08:55:00
3:35 AM,43.2,34.7,72,29.93,10.0,SE,12.7,-,N/A,,Overcast,130,2012-12-15 09:35:00
3:55 AM,42.8,34.9,74,29.93,10.0,SE,13.8,-,N/A,,Light Drizzle,140,2012-12-15 09:55:00
4:15 AM,42.8,35.2,75,29.91,10.0,SE,13.8,-,N/A,Rain,Light Rain,130,2012-12-15 10:15:00
4:35 AM,42.8,35.1,74,29.90,10.0,SE,12.7,-,N/A,,Overcast,140,2012-12-15 10:35:00
4:55 AM,42.8,34.7,73,29.88,10.0,SE,17.3,25.3,N/A,Rain,Light Rain,140,2012-12-15 10:55:00
5:15 AM,42.3,35.1,76,29.83,10.0,ESE,15.0,20.7,0.01,Rain,Light Rain,120,2012-12-15 11:15:00
5:35 AM,42.1,36.1,79,29.82,10.0,SE,12.7,-,0.01,,Overcast,130,2012-12-15 11:35:00
5:55 AM,42.1,36.1,79,29.82,10.0,SE,19.6,24.2,0.01,,Overcast,140,2012-12-15 11:55:00
6:15 AM,42.8,37.4,81,29.83,10.0,SSE,16.1,25.3,N/A,Rain,Light Rain,150,2012-12-15 12:15:00
6:35 AM,42.1,37.4,83,29.81,7.0,SE,16.1,21.9,0.01,Rain,Light Rain,140,2012-12-15 12:35:00
6:55 AM,42.1,38.3,86,29.76,5.0,ESE,17.3,24.2,0.06,Rain,Rain,110,2012-12-15 12:55:00
7:15 AM,42.3,38.5,86,29.76,10.0,SE,16.1,25.3,N/A,,Overcast,130,2012-12-15 13:15:00
7:35 AM,42.4,38.8,87,29.75,7.0,SE,19.6,25.3,0.01,Rain,Light Rain,140,2012-12-15 13:35:00
7:55 AM,42.8,39.4,88,29.74,5.0,SE,24.2,31.1,0.02,Rain,Light Rain,140,2012-12-15 13:55:00
8:15 AM,42.8,40.1,90,29.74,4.0,SSE,17.3,26.5,N/A,,Drizzle,150,2012-12-15 14:15:00
8:35 AM,42.8,40.5,91,29.73,2.0,SSE,21.9,28.8,0.04,Rain,Rain,150,2012-12-15 14:35:00
8:55 AM,42.8,41.0,93,29.72,3.0,SSE,20.7,31.1,0.05,Rain,Light Rain,150,2012-12-15 14:55:00
9:35 AM,43.7,41.9,93,29.71,1.8,SSE,17.3,-,N/A,Rain,Rain,160,2012-12-15 15:35:00
9:55 AM,44.8,43.0,93,29.70,2.5,South,20.7,27.6,N/A,,Overcast,170,2012-12-15 15:55:00
10:15 AM,45.5,43.7,93,29.68,3.0,South,19.6,25.3,N/A,,Overcast,170,2012-12-15 16:15:00
10:35 AM,45.9,44.1,93,29.67,5.0,South,21.9,26.5,N/A,,Overcast,170,2012-12-15 16:35:00
10:55 AM,46.0,44.1,93,29.66,4.0,South,18.4,25.3,N/A,,Overcast,170,2012-12-15 16:55:00
11:15 AM,46.4,44.6,93,29.65,7.0,South,15.0,25.3,N/A,,Overcast,170,2012-12-15 17:15:00
11:35 AM,46.8,44.8,93,29.63,5.0,South,18.4,23.0,N/A,,Overcast,170,2012-12-15 17:35:00
12:15 PM,47.8,45.7,92,29.61,10.0,South,19.6,25.3,N/A,Rain,Light Rain,170,2012-12-15 18:15:00
12:35 PM,47.8,45.7,92,29.59,5.0,South,18.4,25.3,0.01,Rain,Light Rain,170,2012-12-15 18:35:00
12:55 PM,48.2,45.9,92,29.58,5.0,South,18.4,-,0.01,Rain,Light Rain,180,2012-12-15 18:55:00
1:15 PM,48.7,46.8,93,29.57,7.0,South,18.4,-,N/A,,Overcast,170,2012-12-15 19:15:00
1:35 PM,48.7,46.6,92,29.56,5.0,South,17.3,-,N/A,,Light Drizzle,170,2012-12-15 19:35:00
1:55 PM,48.7,46.6,92,29.55,5.0,South,16.1,23.0,N/A,,Drizzle,170,2012-12-15 19:55:00
2:15 PM,48.7,46.8,93,29.55,5.0,South,13.8,-,0.01,,Drizzle,170,2012-12-15 20:15:00
2:35 PM,49.1,47.3,93,29.55,2.5,South,15.0,-,0.02,,Drizzle,190,2012-12-15 20:35:00
2:55 PM,50.0,48.2,94,29.55,3.0,South,12.7,-,N/A,,Light Drizzle,190,2012-12-15 20:55:00
3:15 PM,49.1,47.3,93,29.55,4.0,South,11.5,-,N/A,,Overcast,190,2012-12-15 21:15:00
3:35 PM,49.1,47.5,94,29.55,7.0,SSW,11.5,-,0.01,,Overcast,200,2012-12-15 21:35:00
3:55 PM,49.3,47.7,94,29.56,10.0,SSW,11.5,-,0.01,,Overcast,200,2012-12-15 21:55:00
4:15 PM,49.3,47.5,94,29.56,10.0,SSW,10.4,-,N/A,,Overcast,210,2012-12-15 22:15:00
4:35 PM,49.3,47.3,93,29.57,10.0,SW,12.7,-,N/A,,Overcast,220,2012-12-15 22:35:00
4:55 PM,49.5,47.3,92,29.57,10.0,SW,10.4,-,N/A,,Overcast,220,2012-12-15 22:55:00
5:15 PM,49.5,47.3,92,29.58,10.0,SW,9.2,-,N/A,,Overcast,230,2012-12-15 23:15:00
5:35 PM,49.5,47.3,92,29.59,10.0,SW,10.4,-,N/A,,Overcast,220,2012-12-15 23:35:00
6:15 PM,49.3,46.9,92,29.59,10.0,SW,9.2,-,N/A,,Overcast,220,2012-12-16 00:15:00
6:35 PM,49.3,47.1,92,29.59,10.0,SW,8.1,-,N/A,,Overcast,220,2012-12-16 00:35:00
6:55 PM,49.5,47.3,92,29.60,10.0,SW,9.2,-,N/A,,Overcast,220,2012-12-16 00:55:00
7:15 PM,49.6,47.3,92,29.60,10.0,SW,11.5,-,N/A,,Overcast,230,2012-12-16 01:15:00
7:35 PM,49.6,47.1,91,29.60,7.0,SW,10.4,-,N/A,,Overcast,230,2012-12-16 01:35:00
7:55 PM,49.5,46.9,91,29.60,10.0,SW,8.1,-,N/A,,Overcast,230,2012-12-16 01:55:00
8:15 PM,49.6,46.8,90,29.60,10.0,SW,8.1,-,N/A,,Overcast,220,2012-12-16 02:15:00
8:35 PM,50.0,46.6,88,29.60,10.0,SW,10.4,-,N/A,,Overcast,230,2012-12-16 02:35:00
8:55 PM,50.0,46.0,86,29.59,10.0,SW,10.4,-,N/A,,Overcast,230,2012-12-16 02:55:00
9:15 PM,49.6,45.9,87,29.60,10.0,SW,10.4,-,N/A,,Overcast,220,2012-12-16 03:15:00
9:55 PM,49.5,45.7,87,29.60,10.0,SW,10.4,-,N/A,,Unknown,230,2012-12-16 03:55:00
10:15 PM,49.3,45.7,87,29.59,10.0,SW,11.5,16.1,N/A,,Overcast,230,2012-12-16 04:15:00
10:35 PM,49.3,45.5,87,29.60,10.0,SW,10.4,-,N/A,,Overcast,230,2012-12-16 04:35:00
10:55 PM,49.3,45.7,87,29.60,10.0,SW,10.4,-,N/A,,Overcast,230,2012-12-16 04:55:00
11:15 PM,49.3,45.9,88,29.60,10.0,SW,9.2,-,N/A,,Overcast,230,2012-12-16 05:15:00
11:35 PM,49.3,45.7,87,29.60,10.0,SW,10.4,-,N/A,,Overcast,230,2012-12-16 05:35:00
11:55 PM,49.3,45.5,87,29.60,10.0,WSW,9.2,-,N/A,,Overcast,240,2012-12-16 05:55:00